Regional Weather Roundup
Issued by NWS

Home | Current Version | Previous Version | Text Only | Print | Product List | Glossary Off
Versions: 1 2 3 4 5 6 7 8 9 10 11 12 13 14 15 16 17 18 19 20 21 22 23 24 25 26 27

000
ASUS45 KBOU 270307
RWRCO

WEATHER ROUNDUP FOR COLORADO
NATIONAL WEATHER SERVICE DENVER/BOULDER CO
800 PM MST SUN FEB 26 2017

NOTE: "FAIR" INDICATES FEW OR NO CLOUDS BELOW 12000 FEET WITH NO
SIGNIFICANT WEATHER AND/OR OBSTRUCTIONS TO VISIBILITY.

COZ001>005-013-030-031-270400-
...NORTHWEST COLORADO...

CITY           SKY/WX    TMP DP  RH WIND       PRES   REMARKS
CRAIG          FAIR      20   5  52 E5        29.80S WCI  13
HAYDEN         FAIR      19   1  45 E12       29.78F WCI   7
MEEKER         MOCLDY    23   9  55 N5        29.80S WCI  17
MOUNT WERNER   NOT AVBL
STEAMBOAT SPGS FAIR      14   3  59 CALM      29.80S
WALDEN         NOT AVBL
$$

COZ006>008-011-270400-
...WEST CENTRAL VALLEYS...

CITY           SKY/WX    TMP DP  RH WIND       PRES   REMARKS
GRAND JUNCTION FAIR      29  10  45 E3        29.82S
MONTROSE       FAIR      30  13  49 SE8       29.87S WCI  22
EAGLE          CLEAR     25   9  50 CALM      29.83S
RIFLE          FAIR      28  12  51 CALM      29.83S
DELTA          MOCLDY    36   8  31 NE3       29.85S
NUCLA          FAIR      32   9  37 S8        29.88S WCI  25
$$

COZ017>023-064>068-270400-
...SOUTHWEST COLORADO...

CITY           SKY/WX    TMP DP  RH WIND       PRES   REMARKS
DURANGO        FAIR      28   7  41 N3        29.89R
CORTEZ         CLOUDY    29  16  58 NE5       29.88S WCI  24
PAGOSA SPRINGS FAIR      24  11  56 CALM      29.90R
TELLURIDE      FAIR      20   4  49 SW5       29.88R WCI  14
WOLF CREEK PAS FAIR       7   1  78 S25G36    29.83S WCI -15
$$

COZ009-010-012-014-032>034-037-058>063-270400-
...CENTRAL COLORADO...

CITY           SKY/WX    TMP DP  RH WIND       PRES   REMARKS
ASPEN          FAIR      17   3  54 S7        29.80S WCI   8
BUENA VISTA    FAIR      24  -1  34 W12       29.80R WCI  13
COPPER MTN     FAIR       9  -6  52 MISG      29.72S
BERTHOUD PASS  FAIR       0  -9  65 W23       29.67S WCI -24
COTTONWOOD PAS FAIR      19   0  42 SW9       29.76R WCI   9
GUNNISON       FAIR      14   6  70 NE5       29.87R WCI   6
KREMMLING      FAIR      28   9  43 CALM      29.79F
LEADVILLE      FAIR       5 -10  50 E8        29.75S WCI  -8
MONARCH PASS   FAIR       5   0  78 W33G40    29.83S WCI -20
SALIDA         FAIR      27   1  33 W9        29.89F WCI  17
SUNLIGHT       NOT AVBL
WILKERSON PASS FAIR       9  -4  56 SW18G26   29.73S WCI -10
$$

COZ069>075-270400-
...SAN LUIS VALLEY/SANGRE DE CRISTO MOUNTAINS...

CITY           SKY/WX    TMP DP  RH WIND       PRES   REMARKS
ALAMOSA        FAIR      22  13  68 S7        29.84S WCI  13
LA VETA PASS   FAIR      18   3  53 SW33G47   29.74F WCI  -3
SAGUACHE       FAIR      21   5  49 NW9       29.84S WCI  11
$$

COZ035-036-038>040-270400-
...NORTHERN COLORADO FRONT RANGE...

CITY           SKY/WX    TMP DP  RH WIND       PRES   REMARKS
DENVER INTL AP FAIR      28   1  31 NE8       29.76R WCI  20
DMNS CITY PARK   N/A     31  -2  24 SE6G12    29.77S WCI  26
AURORA         PTCLDY    28  -3  26 E6        29.77R WCI  21
FRONT RANGE AP PTCLDY    30   0  27 NE5       29.77R WCI  25
ERIE MUNI ARPT FAIR      26   7  43 CALM      29.78R
BOULDER MUN AP FAIR      32   7  34 CALM      29.78R
CENTENNIAL     FAIR      29   0  28 CALM      29.76R
BROOMFIELD     NOT AVBL
FORT COLLINS   FAIR      27  16  63 N13       29.79R WCI  16
LONGMONT       NOT AVBL
$$

COZ041-046-047-076>085-087-088-270400-
...PIKES PEAK/PALMER DIVIDE AND SOUTHERN FOOTHILLS...

CITY           SKY/WX    TMP DP  RH WIND       PRES   REMARKS
COLO. SPRINGS  FAIR      32  -7  18 S15       29.77S WCI  22
A. F. ACADEMY  FAIR      31  -5  21 SW15G21   29.75S WCI  20
SCHRIEVER AFB  FAIR      28  -9  19 W3        29.77S
ELLICOTT       NOT AVBL
FALCON         FAIR      29  -8  20 W9        29.77S WCI  20
FORT CARSON    FAIR      34  -4  19 W9        29.76S WCI  27
LIMON          FAIR      22   5  48 SE7       29.77R WCI  13
MONUMENT HILL  FAIR      27   3  36 SW12      29.77S WCI  16
TRINIDAD       FAIR      28   1  31 SW5       29.80S WCI  23
$$

COZ042>045-048>051-090-091-270400-
...NORTHEAST COLORADO...

CITY           SKY/WX    TMP DP  RH WIND       PRES   REMARKS
GREELEY ARPT   FAIR      24  15  68 E8        29.80  WCI  15
AKRON          FAIR      24   9  52 E7        29.79S WCI  16
BURLINGTON     FAIR      28   7  41 SE14      29.82F WCI  17
WRAY           NOT AVBL
STERLING       NOT AVBL
HOLYOKE        FAIR      25  18  74 E9        29.86S WCI  15
FORT MORGAN    FAIR      25  16  69 NE10      29.80R WCI  14
$$

COZ086-089-092>099-270400-
...SOUTHEAST COLORADO...

CITY           SKY/WX    TMP DP  RH WIND       PRES   REMARKS
PUEBLO         FAIR      31  -6  20 N3        29.78R
LA JUNTA       FAIR      34   7  32 E8        29.81R WCI  27
LAMAR          FAIR      34   7  32 SE13      29.81F WCI  25
SPRINGFIELD      N/A     31   7  36 NE6       29.83S WCI  25
$$




USA.gov is the U.S. government's official web portal to all federal, state and local government web resources and services.